Location: Unspecified
(50.0830°N, 0.0000°E)
Time: 19:26:11
(UTC+00:00)

Envisat - Pass Details

Date: 20 November 2019
Orbit: 764 x 766 km, 98.1° (Epoch: 05 December)

Event Time Altitude Azimuth Distance (km) Brightness Sun altitude
Rises 05:21:34 0° 30° (NNE) 3,243 6.5 -18.7°
Reaches altitude 10° 05:25:20 10° 59° (ENE) 2,310 6.2 -18.1°
Maximum altitude 05:27:33 13° 85° (E) 2,117 6.4 -17.8°
Drops below altitude 10° 05:29:46 10° 111° (ESE) 2,302 6.7 -17.4°
Sets 05:33:29 0° 140° (SE) 3,221 7.1 -16.8°
